闪电 2-10星 (MOLNIYA 2-10)

导读

MOLNIYA 2-10(闪电2-10)是前苏联(CIS)于1974年7月23日发射的第二代闪电系列通信卫星。它运行在著名的“闪电轨道”——高倾角椭圆轨道,能长时间停留在北半球高纬度区域上空,适配苏联广阔领土的通信需求。卫星基于KAUR-2平台研制,兼具民用电视广播与军事通信功能,是苏联早期天基通信网络的重要组成部分,体现了当时独特的轨道设计思路与航天技术水平。

基本信息
目录编号:
7376
目录名称:
MOLNIYA 2-10
国际标识:
1974-056A
轨道中心:
EARTH
卫星名称:
闪电 2-10星
卫星全名:
闪电 2-10星 (MOLNIYA 2-10)
卫星状态:
在轨 (已飞行18952 天)
发射日期:
1974-07-23 UTC
国别 :
俄罗斯(独联体) (CIS)
星等 :
--
轨道信息
数据来源 国际轨道数据 AOE轨道数据
星历时间 2026-06-12T01:08:12+0800
1天前
查看轨道信息
2026-06-12T13:00:00+0800
15小时前
查看轨道信息
半长轴 26516.245km 26516.148km
偏心率 0.6715536 0.6715882
轨道倾角 65.263° 65.262°
近地点辐角 269.289° 269.279°
升交点赤经 300.876° 300.823°
平近点角 19.613° 17.410°
近地点 2331.028km 2330.078km
远地点 37945.188km 37945.944km
周期 716.189分钟 716.185分钟
每日圈数 2.010642 2.010653
详细信息
平衡模式:
三轴稳定
覆盖范围:
全球
运营商:
俄罗斯国家航天集团
运营商所在国:
俄罗斯
制造商(研发单位):
普里克拉德诺伊·梅哈尼基设计局
制造商所在国:
俄罗斯联邦
使用方式:
暂无
卫星简介
闪电(Molniya (Satellite))系列卫星是苏联/俄罗斯于1965年至2004年间发射的军事和通信卫星。这些卫星使用高度偏心的椭圆轨道,称为Molniya轨道(即闪电轨道),在高纬度地区具有较长的停留时间。该卫星状态未知。
2D轨道图
3D轨道图
轨道高度分析图
轨道倾角分析图
轨道综合分析图
查看轨道综合分析图